Time,TemperatureF,DewpointF,PressureIn,WindDirection,WindDirectionDegrees,WindSpeedMPH,WindSpeedGustMPH,Humidity,HourlyPrecipIn,Conditions,Clouds,dailyrainin,SolarRadiationWatts/m^2,SoftwareType,DateUTC
2013-01-06 00:02:00,43.1,40.1,30.12,NW,306,7.0,12.0,89,0.05,,,0.00,0,WeatherTracker,2013-01-06 08:02:00,
2013-01-06 00:07:00,43.1,40.1,30.12,NNW,333,9.0,12.0,89,0.05,,,0.00,0,WeatherTracker,2013-01-06 08:07:00,
2013-01-06 00:12:00,43.1,40.1,30.12,WNW,303,5.0,14.0,89,0.05,,,0.00,0,WeatherTracker,2013-01-06 08:12:00,
2013-01-06 00:17:00,43.1,40.1,30.12,NW,309,5.0,14.0,89,0.05,,,0.00,0,WeatherTracker,2013-01-06 08:17:00,
2013-01-06 00:22:00,43.1,40.1,30.11,NNW,339,6.0,14.0,89,0.03,,,0.00,0,WeatherTracker,2013-01-06 08:22:00,
2013-01-06 00:27:00,43.1,40.1,30.11,NW,325,5.0,11.0,89,0.04,,,0.01,0,WeatherTracker,2013-01-06 08:27:00,
2013-01-06 00:32:00,43.0,40.0,30.11,NW,309,5.0,11.0,89,0.03,,,0.01,0,WeatherTracker,2013-01-06 08:32:00,
2013-01-06 00:37:00,43.0,40.0,30.11,NNW,329,7.0,11.0,89,0.03,,,0.02,0,WeatherTracker,2013-01-06 08:37:00,
2013-01-06 00:42:00,43.0,40.0,30.10,WNW,283,4.0,12.0,89,0.03,,,0.02,0,WeatherTracker,2013-01-06 08:42:00,
2013-01-06 00:47:00,43.0,40.0,30.10,NW,319,3.0,12.0,89,0.04,,,0.03,0,WeatherTracker,2013-01-06 08:47:00,
2013-01-06 00:52:00,43.0,40.0,30.10,NW,317,9.0,11.0,89,0.03,,,0.03,0,WeatherTracker,2013-01-06 08:52:00,
2013-01-06 00:57:00,43.0,40.0,30.11,NNW,344,5.0,12.0,89,0.04,,,0.04,0,WeatherTracker,2013-01-06 08:57:00,
2013-01-06 01:02:00,43.0,40.0,30.11,NW,315,2.0,16.0,89,0.04,,,0.04,0,WeatherTracker,2013-01-06 09:02:00,
2013-01-06 01:07:00,43.0,40.0,30.12,NNW,348,9.0,16.0,89,0.05,,,0.05,0,WeatherTracker,2013-01-06 09:07:00,
2013-01-06 01:12:00,43.0,40.0,30.12,NNW,331,4.0,12.0,89,0.05,,,0.05,0,WeatherTracker,2013-01-06 09:12:00,
2013-01-06 01:17:00,43.1,40.1,30.12,NNW,334,5.0,11.0,89,0.06,,,0.06,0,WeatherTracker,2013-01-06 09:17:00,
2013-01-06 01:22:00,43.1,39.8,30.12,NNW,346,3.0,8.0,88,0.07,,,0.07,0,WeatherTracker,2013-01-06 09:22:00,
2013-01-06 01:28:00,43.1,39.8,30.13,NNW,346,1.0,7.0,88,0.06,,,0.07,0,WeatherTracker,2013-01-06 09:28:00,
2013-01-06 01:33:00,43.2,39.9,30.13,NW,320,0.0,8.0,88,0.07,,,0.08,0,WeatherTracker,2013-01-06 09:33:00,
2013-01-06 01:38:00,43.2,39.9,30.12,NNW,336,0.0,8.0,88,0.07,,,0.09,0,WeatherTracker,2013-01-06 09:38:00,
2013-01-06 01:43:00,43.2,39.9,30.12,SSW,211,0.0,4.0,88,0.07,,,0.09,0,WeatherTracker,2013-01-06 09:43:00,
2013-01-06 01:48:00,43.1,39.8,30.12,SSW,207,0.0,0.0,88,0.07,,,0.10,0,WeatherTracker,2013-01-06 09:48:00,
2013-01-06 01:53:00,43.2,39.9,30.12,SW,215,0.0,3.0,88,0.07,,,0.10,0,WeatherTracker,2013-01-06 09:53:00,
2013-01-06 01:58:00,43.2,39.9,30.12,NW,316,4.0,4.0,88,0.06,,,0.10,0,WeatherTracker,2013-01-06 09:58:00,
2013-01-06 02:03:00,43.3,40.0,30.12,WNW,296,5.0,8.0,88,0.06,,,0.10,0,WeatherTracker,2013-01-06 10:03:00,
2013-01-06 02:08:00,43.3,40.0,30.12,NW,326,5.0,9.0,88,0.06,,,0.11,0,WeatherTracker,2013-01-06 10:08:00,
2013-01-06 02:13:00,43.3,40.0,30.12,NNW,335,4.0,9.0,88,0.06,,,0.11,0,WeatherTracker,2013-01-06 10:13:00,
2013-01-06 02:18:00,43.4,40.1,30.11,NW,304,6.0,9.0,88,0.06,,,0.12,0,WeatherTracker,2013-01-06 10:18:00,
2013-01-06 02:23:00,43.4,40.1,30.12,NW,319,3.0,9.0,88,0.06,,,0.13,0,WeatherTracker,2013-01-06 10:23:00,
2013-01-06 02:28:00,43.4,40.1,30.12,NNW,327,0.0,9.0,88,0.06,,,0.13,0,WeatherTracker,2013-01-06 10:28:00,
2013-01-06 02:33:00,43.4,40.1,30.12,NW,325,0.0,7.0,88,0.05,,,0.13,0,WeatherTracker,2013-01-06 10:33:00,
2013-01-06 02:38:00,43.5,40.2,30.12,WNW,300,0.0,6.0,88,0.04,,,0.13,0,WeatherTracker,2013-01-06 10:38:00,
2013-01-06 02:43:00,43.5,40.2,30.12,NW,308,2.0,6.0,88,0.04,,,0.13,0,WeatherTracker,2013-01-06 10:43:00,
2013-01-06 02:48:00,43.5,40.2,30.12,WNW,303,4.0,6.0,88,0.03,,,0.13,0,WeatherTracker,2013-01-06 10:48:00,
2013-01-06 02:53:00,43.5,40.2,30.12,WNW,302,0.0,6.0,88,0.03,,,0.13,0,WeatherTracker,2013-01-06 10:53:00,
2013-01-06 02:58:00,43.5,40.2,30.12,NW,304,0.0,6.0,88,0.03,,,0.13,0,WeatherTracker,2013-01-06 10:58:00,
2013-01-06 03:03:00,43.5,40.2,30.12,NW,308,6.0,7.0,88,0.03,,,0.13,0,WeatherTracker,2013-01-06 11:03:00,
2013-01-06 03:09:00,43.5,40.2,30.12,WNW,298,1.0,7.0,88,0.03,,,0.14,0,WeatherTracker,2013-01-06 11:09:00,
2013-01-06 03:14:00,43.5,40.2,30.12,NW,309,7.0,7.0,88,0.03,,,0.14,0,WeatherTracker,2013-01-06 11:14:00,
2013-01-06 03:19:00,43.5,40.2,30.13,NW,308,0.0,9.0,88,0.02,,,0.14,0,WeatherTracker,2013-01-06 11:19:00,
2013-01-06 03:24:00,43.5,40.2,30.13,NNW,329,5.0,9.0,88,0.01,,,0.14,0,WeatherTracker,2013-01-06 11:24:00,
2013-01-06 03:29:00,43.5,40.2,30.13,North,355,6.0,8.0,88,0.01,,,0.14,0,WeatherTracker,2013-01-06 11:29:00,
2013-01-06 03:34:00,43.5,40.2,30.13,NW,305,0.0,10.0,88,0.01,,,0.14,0,WeatherTracker,2013-01-06 11:34:00,
2013-01-06 03:39:00,43.5,40.2,30.13,NNW,336,0.0,10.0,88,0.01,,,0.14,0,WeatherTracker,2013-01-06 11:39:00,
2013-01-06 03:44:00,43.5,40.2,30.13,WNW,284,2.0,9.0,88,0.01,,,0.14,0,WeatherTracker,2013-01-06 11:44:00,
2013-01-06 03:49:00,43.5,40.2,30.13,NW,321,3.0,13.0,88,0.01,,,0.14,0,WeatherTracker,2013-01-06 11:49:00,
2013-01-06 03:54:00,43.5,40.2,30.13,West,281,5.0,13.0,88,0.01,,,0.14,0,WeatherTracker,2013-01-06 11:54:00,
2013-01-06 03:59:00,43.5,40.2,30.13,NW,315,0.0,10.0,88,0.01,,,0.14,0,WeatherTracker,2013-01-06 11:59:00,
2013-01-06 04:04:00,43.5,40.2,30.13,NW,318,6.0,9.0,88,0.01,,,0.14,0,WeatherTracker,2013-01-06 12:04:00,
2013-01-06 04:09:00,43.5,40.2,30.13,NNW,339,3.0,6.0,88,0.00,,,0.14,0,WeatherTracker,2013-01-06 12:09:00,
2013-01-06 04:14:00,43.5,40.2,30.13,NNW,333,3.0,6.0,88,0.00,,,0.14,0,WeatherTracker,2013-01-06 12:14:00,
2013-01-06 04:19:00,43.5,40.2,30.13,NNW,336,2.0,7.0,88,0.00,,,0.14,0,WeatherTracker,2013-01-06 12:19:00,
2013-01-06 04:24:00,43.5,40.2,30.13,NNW,335,0.0,8.0,88,0.00,,,0.14,0,WeatherTracker,2013-01-06 12:24:00,
2013-01-06 04:29:00,43.5,40.2,30.13,NW,314,0.0,8.0,88,0.00,,,0.14,0,WeatherTracker,2013-01-06 12:29:00,
2013-01-06 04:34:00,43.5,40.2,30.13,NNW,336,2.0,6.0,88,0.00,,,0.14,0,WeatherTracker,2013-01-06 12:34:00,
2013-01-06 04:39:00,43.5,40.2,30.13,NW,320,0.0,6.0,88,0.00,,,0.14,0,WeatherTracker,2013-01-06 12:39:00,
2013-01-06 04:44:00,43.5,40.2,30.13,NNW,327,3.0,5.0,88,0.01,,,0.15,0,WeatherTracker,2013-01-06 12:44:00,
2013-01-06 04:49:00,43.5,40.2,30.12,NNW,328,0.0,5.0,88,0.01,,,0.15,0,WeatherTracker,2013-01-06 12:49:00,
2013-01-06 04:54:00,43.5,40.2,30.12,NNW,328,0.0,4.0,88,0.01,,,0.15,0,WeatherTracker,2013-01-06 12:54:00,
2013-01-06 04:59:00,43.5,40.2,30.13,NW,314,0.0,4.0,88,0.01,,,0.15,0,WeatherTracker,2013-01-06 12:59:00,
2013-01-06 05:04:00,43.5,40.2,30.12,NW,315,0.0,0.0,88,0.01,,,0.15,0,WeatherTracker,2013-01-06 13:04:00,
2013-01-06 05:09:00,43.6,40.3,30.12,NNW,327,0.0,0.0,88,0.01,,,0.15,0,WeatherTracker,2013-01-06 13:09:00,
2013-01-06 05:14:00,43.5,40.2,30.12,NNW,327,0.0,4.0,88,0.01,,,0.15,0,WeatherTracker,2013-01-06 13:14:00,
2013-01-06 05:19:00,43.5,40.2,30.13,WNW,295,2.0,4.0,88,0.01,,,0.15,0,WeatherTracker,2013-01-06 13:19:00,
2013-01-06 05:26:00,43.5,40.2,30.13,NW,306,0.0,7.0,88,0.01,,,0.15,0,WeatherTracker,2013-01-06 13:26:00,
2013-01-06 05:31:00,43.5,40.2,30.13,WNW,293,3.0,7.0,88,0.01,,,0.15,0,WeatherTracker,2013-01-06 13:31:00,
2013-01-06 05:37:00,43.5,40.2,30.14,NW,304,2.0,5.0,88,0.01,,,0.15,0,WeatherTracker,2013-01-06 13:37:00,
2013-01-06 05:42:00,43.5,40.2,30.14,NW,304,5.0,6.0,88,0.00,,,0.15,0,WeatherTracker,2013-01-06 13:42:00,
2013-01-06 05:47:00,43.5,40.2,30.14,NW,318,0.0,8.0,88,0.00,,,0.15,0,WeatherTracker,2013-01-06 13:47:00,
2013-01-06 05:52:00,43.4,40.1,30.14,NW,306,1.0,8.0,88,0.00,,,0.15,0,WeatherTracker,2013-01-06 13:52:00,
2013-01-06 05:57:00,43.4,40.1,30.14,NNW,338,5.0,7.0,88,0.00,,,0.15,0,WeatherTracker,2013-01-06 13:57:00,
2013-01-06 06:02:00,43.4,40.1,30.14,NW,311,4.0,7.0,88,0.00,,,0.15,0,WeatherTracker,2013-01-06 14:02:00,
2013-01-06 06:07:00,43.4,40.1,30.14,NW,321,2.0,7.0,88,0.00,,,0.15,0,WeatherTracker,2013-01-06 14:07:00,
2013-01-06 06:12:00,43.4,40.1,30.14,NW,309,5.0,8.0,88,0.00,,,0.15,0,WeatherTracker,2013-01-06 14:12:00,
2013-01-06 06:17:00,43.4,40.1,30.14,West,273,5.0,8.0,88,0.00,,,0.15,0,WeatherTracker,2013-01-06 14:17:00,
2013-01-06 06:22:00,43.4,40.1,30.14,NW,318,3.0,11.0,88,0.00,,,0.15,0,WeatherTracker,2013-01-06 14:22:00,
2013-01-06 06:27:00,43.4,40.1,30.14,WNW,298,4.0,11.0,88,0.00,,,0.15,0,WeatherTracker,2013-01-06 14:27:00,
2013-01-06 06:32:00,43.4,40.1,30.15,WNW,301,5.0,10.0,88,0.01,,,0.16,0,WeatherTracker,2013-01-06 14:32:00,
2013-01-06 06:37:00,43.4,40.1,30.15,WNW,299,4.0,12.0,88,0.01,,,0.16,0,WeatherTracker,2013-01-06 14:37:00,
2013-01-06 06:42:00,43.4,40.1,30.15,NNW,331,6.0,12.0,88,0.01,,,0.16,0,WeatherTracker,2013-01-06 14:42:00,
2013-01-06 06:47:00,43.4,40.1,30.15,WNW,288,2.0,10.0,88,0.02,,,0.17,0,WeatherTracker,2013-01-06 14:47:00,
2013-01-06 06:52:00,43.4,40.1,30.15,WNW,297,7.0,11.0,88,0.02,,,0.17,0,WeatherTracker,2013-01-06 14:52:00,
2013-01-06 06:57:00,43.4,40.1,30.15,WNW,300,3.0,11.0,88,0.02,,,0.17,0,WeatherTracker,2013-01-06 14:57:00,
2013-01-06 07:03:00,43.4,40.1,30.16,NW,317,3.0,10.0,88,0.02,,,0.17,0,WeatherTracker,2013-01-06 15:03:00,
2013-01-06 07:08:00,43.4,40.1,30.15,NW,306,0.0,9.0,88,0.03,,,0.18,0,WeatherTracker,2013-01-06 15:08:00,
2013-01-06 07:13:00,43.4,40.1,30.16,NW,308,0.0,11.0,88,0.03,,,0.18,0,WeatherTracker,2013-01-06 15:13:00,
2013-01-06 07:18:00,43.4,40.1,30.16,NNW,328,3.0,11.0,88,0.03,,,0.18,0,WeatherTracker,2013-01-06 15:18:00,
2013-01-06 07:23:00,43.4,40.1,30.15,WNW,286,4.0,10.0,88,0.03,,,0.18,0,WeatherTracker,2013-01-06 15:23:00,
2013-01-06 07:28:00,43.4,40.1,30.15,NNW,328,0.0,10.0,88,0.03,,,0.18,0,WeatherTracker,2013-01-06 15:28:00,
2013-01-06 07:33:00,43.4,40.1,30.15,NNW,327,0.0,7.0,88,0.02,,,0.18,0,WeatherTracker,2013-01-06 15:33:00,
2013-01-06 07:38:00,43.4,40.1,30.15,WNW,294,4.0,7.0,88,0.02,,,0.18,0,WeatherTracker,2013-01-06 15:38:00,
2013-01-06 07:43:00,43.5,40.2,30.15,NW,319,6.0,6.0,88,0.02,,,0.18,0,WeatherTracker,2013-01-06 15:43:00,
2013-01-06 07:48:00,43.5,40.2,30.15,NNW,337,4.0,6.0,88,0.01,,,0.18,5,WeatherTracker,2013-01-06 15:48:00,
2013-01-06 07:53:00,43.5,40.2,30.15,NW,317,0.0,6.0,88,0.01,,,0.18,12,WeatherTracker,2013-01-06 15:53:00,
2013-01-06 07:58:00,43.5,40.2,30.15,NW,326,4.0,6.0,88,0.01,,,0.18,11,WeatherTracker,2013-01-06 15:58:00,
2013-01-06 08:03:00,43.5,40.2,30.15,NNW,327,2.0,6.0,88,0.01,,,0.18,11,WeatherTracker,2013-01-06 16:03:00,
2013-01-06 08:08:00,43.5,40.2,30.15,NNW,329,2.0,6.0,88,0.00,,,0.18,12,WeatherTracker,2013-01-06 16:08:00,
2013-01-06 08:13:00,43.6,40.6,30.15,NW,316,0.0,5.0,89,0.00,,,0.18,12,WeatherTracker,2013-01-06 16:13:00,
2013-01-06 08:18:00,43.7,40.7,30.15,NW,321,0.0,5.0,89,0.00,,,0.18,11,WeatherTracker,2013-01-06 16:18:00,
2013-01-06 08:23:00,43.6,40.6,30.16,NW,323,4.0,0.0,89,0.00,,,0.18,9,WeatherTracker,2013-01-06 16:23:00,
2013-01-06 08:28:00,43.7,40.7,30.16,NNW,336,3.0,5.0,89,0.00,,,0.18,9,WeatherTracker,2013-01-06 16:28:00,
2013-01-06 08:33:00,43.7,40.7,30.16,North,355,0.0,5.0,89,0.00,,,0.18,9,WeatherTracker,2013-01-06 16:33:00,
2013-01-06 08:38:00,43.7,40.7,30.16,North,351,1.0,5.0,89,0.00,,,0.18,7,WeatherTracker,2013-01-06 16:38:00,
2013-01-06 08:43:00,43.8,40.8,30.16,NNW,331,3.0,5.0,89,0.00,,,0.18,5,WeatherTracker,2013-01-06 16:43:00,
2013-01-06 08:48:00,43.7,40.7,30.17,NNW,332,2.0,6.0,89,0.00,,,0.18,5,WeatherTracker,2013-01-06 16:48:00,
2013-01-06 08:53:00,43.8,40.8,30.17,NNW,336,4.0,6.0,89,0.00,,,0.18,5,WeatherTracker,2013-01-06 16:53:00,
2013-01-06 08:58:00,43.8,40.8,30.18,NNW,336,2.0,6.0,89,0.00,,,0.18,7,WeatherTracker,2013-01-06 16:58:00,
2013-01-06 09:04:00,43.8,40.8,30.18,NNW,336,0.0,4.0,89,0.00,,,0.18,14,WeatherTracker,2013-01-06 17:04:00,
2013-01-06 09:09:00,43.8,40.8,30.18,NNW,336,0.0,4.0,89,0.00,,,0.18,12,WeatherTracker,2013-01-06 17:09:00,
2013-01-06 09:14:00,43.9,40.9,30.19,NNW,336,0.0,3.0,89,0.00,,,0.18,16,WeatherTracker,2013-01-06 17:14:00,
2013-01-06 09:19:00,43.9,40.9,30.19,NNW,336,0.0,0.0,89,0.00,,,0.18,25,WeatherTracker,2013-01-06 17:19:00,
2013-01-06 09:24:00,43.9,40.9,30.20,NNW,336,0.0,0.0,89,0.00,,,0.18,21,WeatherTracker,2013-01-06 17:24:00,
2013-01-06 09:29:00,44.0,40.7,30.20,NNW,336,0.0,0.0,88,0.00,,,0.18,19,WeatherTracker,2013-01-06 17:29:00,
2013-01-06 09:44:00,44.1,40.8,30.20,NNW,340,0.0,0.0,88,0.00,,,0.18,35,WeatherTracker,2013-01-06 17:44:00,
2013-01-06 09:49:00,44.1,40.8,30.20,NNW,339,0.0,5.0,88,0.00,,,0.18,42,WeatherTracker,2013-01-06 17:49:00,
2013-01-06 09:54:00,44.2,40.9,30.20,NNW,339,0.0,4.0,88,0.00,,,0.18,47,WeatherTracker,2013-01-06 17:54:00,
2013-01-06 10:00:00,44.3,41.0,30.20,NNW,338,0.0,4.0,88,0.00,,,0.18,53,WeatherTracker,2013-01-06 18:00:00,
2013-01-06 10:05:00,44.4,41.1,30.20,North,351,3.0,5.0,88,0.00,,,0.18,53,WeatherTracker,2013-01-06 18:05:00,
2013-01-06 10:10:00,44.4,41.1,30.20,North,355,3.0,5.0,88,0.00,,,0.18,51,WeatherTracker,2013-01-06 18:10:00,
2013-01-06 10:15:00,44.5,41.2,30.20,North,355,3.0,4.0,88,0.00,,,0.18,60,WeatherTracker,2013-01-06 18:15:00,
2013-01-06 10:20:00,44.5,41.2,30.20,North,355,0.0,4.0,88,0.00,,,0.18,79,WeatherTracker,2013-01-06 18:20:00,
2013-01-06 10:25:00,44.7,41.4,30.20,North,355,0.0,3.0,88,0.00,,,0.18,84,WeatherTracker,2013-01-06 18:25:00,
2013-01-06 10:30:00,44.8,41.5,30.20,North,355,0.0,0.0,88,0.00,,,0.18,72,WeatherTracker,2013-01-06 18:30:00,
2013-01-06 10:35:00,44.9,41.6,30.20,North,355,0.0,0.0,88,0.00,,,0.18,69,WeatherTracker,2013-01-06 18:35:00,
2013-01-06 10:40:00,45.0,41.7,30.20,North,355,0.0,0.0,88,0.00,,,0.18,54,WeatherTracker,2013-01-06 18:40:00,
2013-01-06 10:45:00,45.1,41.8,30.19,North,355,0.0,0.0,88,0.00,,,0.18,62,WeatherTracker,2013-01-06 18:45:00,
2013-01-06 10:50:00,45.1,41.8,30.19,North,355,0.0,0.0,88,0.00,,,0.18,86,WeatherTracker,2013-01-06 18:50:00,
2013-01-06 10:55:00,45.1,41.8,30.19,North,351,0.0,0.0,88,0.00,,,0.18,113,WeatherTracker,2013-01-06 18:55:00,
2013-01-06 11:00:00,45.2,41.9,30.19,North,351,0.0,0.0,88,0.00,,,0.18,125,WeatherTracker,2013-01-06 19:00:00,
2013-01-06 11:05:00,45.4,42.1,30.18,North,351,0.0,0.0,88,0.00,,,0.18,137,WeatherTracker,2013-01-06 19:05:00,
2013-01-06 11:10:00,45.6,42.3,30.18,North,351,0.0,0.0,88,0.00,,,0.18,142,WeatherTracker,2013-01-06 19:10:00,
2013-01-06 11:16:00,45.9,42.5,30.18,North,350,0.0,0.0,88,0.00,,,0.18,155,WeatherTracker,2013-01-06 19:16:00,
2013-01-06 11:20:00,46.0,42.6,30.18,North,350,0.0,0.0,88,0.00,,,0.18,160,WeatherTracker,2013-01-06 19:20:00,
2013-01-06 11:26:00,46.2,42.8,30.18,North,350,0.0,0.0,88,0.00,,,0.18,163,WeatherTracker,2013-01-06 19:26:00,
2013-01-06 11:31:00,46.5,43.1,30.17,North,350,0.0,0.0,88,0.00,,,0.18,174,WeatherTracker,2013-01-06 19:31:00,
2013-01-06 11:36:00,46.8,43.4,30.17,North,350,0.0,0.0,88,0.00,,,0.18,192,WeatherTracker,2013-01-06 19:36:00,
2013-01-06 11:46:00,47.3,44.2,30.17,NNW,342,0.0,0.0,89,0.00,,,0.18,197,WeatherTracker,2013-01-06 19:46:00,
2013-01-06 11:51:00,47.5,44.4,30.17,NNW,342,0.0,0.0,89,0.00,,,0.18,195,WeatherTracker,2013-01-06 19:51:00,
2013-01-06 11:56:00,47.7,44.6,30.17,NNW,342,0.0,0.0,89,0.00,,,0.18,214,WeatherTracker,2013-01-06 19:56:00,
2013-01-06 12:01:00,48.1,45.0,30.17,NNW,342,0.0,0.0,89,0.00,,,0.18,241,WeatherTracker,2013-01-06 20:01:00,
2013-01-06 12:06:00,48.5,45.4,30.16,NNW,342,0.0,0.0,89,0.00,,,0.18,302,WeatherTracker,2013-01-06 20:06:00,
2013-01-06 12:11:00,48.8,45.7,30.17,NNW,340,2.0,4.0,89,0.00,,,0.18,306,WeatherTracker,2013-01-06 20:11:00,
2013-01-06 12:13:00,49.0,45.9,30.17,NNW,340,2.0,4.0,89,0.00,,,0.18,308,WeatherTracker,2013-01-06 20:13:00,
2013-01-06 12:18:00,49.3,46.2,30.16,NNW,339,0.0,5.0,89,0.00,,,0.18,271,WeatherTracker,2013-01-06 20:18:00,
2013-01-06 12:23:00,49.6,46.5,30.16,NNW,339,0.0,5.0,89,0.00,,,0.18,246,WeatherTracker,2013-01-06 20:23:00,
2013-01-06 12:28:00,49.9,46.8,30.16,NNW,339,0.0,3.0,89,0.00,,,0.18,237,WeatherTracker,2013-01-06 20:28:00,
2013-01-06 12:33:00,50.1,46.7,30.16,NNW,338,0.0,0.0,88,0.00,,,0.18,234,WeatherTracker,2013-01-06 20:33:00,
2013-01-06 12:38:00,50.2,46.8,30.16,NNW,338,0.0,0.0,88,0.00,,,0.18,209,WeatherTracker,2013-01-06 20:38:00,
2013-01-06 12:43:00,50.2,46.5,30.16,NNW,339,0.0,0.0,87,0.00,,,0.18,171,WeatherTracker,2013-01-06 20:43:00,
2013-01-06 12:48:00,50.0,46.0,30.16,NNW,339,0.0,0.0,86,0.00,,,0.18,165,WeatherTracker,2013-01-06 20:48:00,
2013-01-06 12:53:00,50.0,46.0,30.16,NNW,338,0.0,0.0,86,0.00,,,0.18,141,WeatherTracker,2013-01-06 20:53:00,
2013-01-06 12:58:00,50.0,46.0,30.16,NNW,338,0.0,0.0,86,0.00,,,0.18,139,WeatherTracker,2013-01-06 20:58:00,
2013-01-06 13:00:00,50.0,46.0,30.15,NNW,338,0.0,0.0,86,0.00,,,0.18,137,WeatherTracker,2013-01-06 21:00:00,
2013-01-06 13:05:00,50.0,46.0,30.16,NNW,338,0.0,0.0,86,0.00,,,0.18,128,WeatherTracker,2013-01-06 21:05:00,
2013-01-06 13:10:00,49.9,45.6,30.15,NNW,337,0.0,0.0,85,0.00,,,0.18,132,WeatherTracker,2013-01-06 21:10:00,
2013-01-06 13:15:00,49.8,45.5,30.15,NNW,336,3.0,3.0,85,0.00,,,0.18,165,WeatherTracker,2013-01-06 21:15:00,
2013-01-06 13:20:00,49.9,45.6,30.15,NNW,336,0.0,3.0,85,0.00,,,0.18,176,WeatherTracker,2013-01-06 21:20:00,
2013-01-06 13:26:00,50.0,45.7,30.15,NNW,334,2.0,5.0,85,0.00,,,0.18,188,WeatherTracker,2013-01-06 21:26:00,
2013-01-06 13:31:00,50.2,45.9,30.15,NNW,334,0.0,5.0,85,0.00,,,0.18,211,WeatherTracker,2013-01-06 21:31:00,
2013-01-06 13:36:00,50.4,45.7,30.15,NNW,334,0.0,3.0,84,0.00,,,0.18,260,WeatherTracker,2013-01-06 21:36:00,
2013-01-06 13:41:00,50.8,46.5,30.15,NNW,335,0.0,0.0,85,0.00,,,0.18,281,WeatherTracker,2013-01-06 21:41:00,
2013-01-06 13:46:00,51.3,46.3,30.15,NNW,328,0.0,1.0,83,0.00,,,0.18,262,WeatherTracker,2013-01-06 21:46:00,
2013-01-06 13:51:00,51.7,46.4,30.15,NNW,328,0.0,3.0,82,0.00,,,0.18,473,WeatherTracker,2013-01-06 21:51:00,
2013-01-06 13:56:00,52.4,46.4,30.15,NW,321,0.0,4.0,80,0.00,,,0.18,394,WeatherTracker,2013-01-06 21:56:00,
2013-01-06 14:01:00,52.9,46.2,30.15,NW,320,0.0,4.0,78,0.00,,,0.18,385,WeatherTracker,2013-01-06 22:01:00,
2013-01-06 14:06:00,53.1,46.1,30.15,NW,311,0.0,5.0,77,0.00,,,0.18,381,WeatherTracker,2013-01-06 22:06:00,
2013-01-06 14:11:00,53.3,46.3,30.14,NW,311,0.0,5.0,77,0.00,,,0.18,373,WeatherTracker,2013-01-06 22:11:00,
2013-01-06 14:16:00,53.4,46.0,30.14,NW,311,0.0,4.0,76,0.00,,,0.18,364,WeatherTracker,2013-01-06 22:16:00,
2013-01-06 14:21:00,53.6,46.2,30.15,NW,311,0.0,3.0,76,0.00,,,0.18,357,WeatherTracker,2013-01-06 22:21:00,
2013-01-06 14:26:00,53.9,45.8,30.14,NW,310,0.0,4.0,74,0.00,,,0.18,350,WeatherTracker,2013-01-06 22:26:00,
2013-01-06 14:31:00,54.0,45.9,30.14,NW,311,0.0,4.0,74,0.00,,,0.18,339,WeatherTracker,2013-01-06 22:31:00,
2013-01-06 14:36:00,54.1,45.3,30.14,NW,309,2.0,4.0,72,0.00,,,0.18,330,WeatherTracker,2013-01-06 22:36:00,
2013-01-06 14:41:00,54.2,45.4,30.14,NW,309,0.0,4.0,72,0.00,,,0.18,327,WeatherTracker,2013-01-06 22:41:00,
2013-01-06 14:46:00,54.0,44.4,30.14,NW,309,0.0,4.0,70,0.00,,,0.18,318,WeatherTracker,2013-01-06 22:46:00,
2013-01-06 14:51:00,53.7,44.9,30.13,NW,310,0.0,0.0,72,0.00,,,0.18,313,WeatherTracker,2013-01-06 22:51:00,
2013-01-06 14:56:00,53.7,44.5,30.14,NW,310,0.0,0.0,71,0.00,,,0.18,299,WeatherTracker,2013-01-06 22:56:00,
2013-01-06 15:01:00,53.7,44.5,30.13,NW,309,0.0,0.0,71,0.00,,,0.18,287,WeatherTracker,2013-01-06 23:01:00,
2013-01-06 15:06:00,53.7,44.5,30.13,NW,309,0.0,0.0,71,0.00,,,0.18,272,WeatherTracker,2013-01-06 23:06:00,
2013-01-06 15:11:00,53.5,45.1,30.13,NW,309,0.0,0.0,73,0.00,,,0.18,255,WeatherTracker,2013-01-06 23:11:00,
2013-01-06 15:16:00,53.3,44.9,30.14,NW,304,0.0,2.0,73,0.00,,,0.18,237,WeatherTracker,2013-01-06 23:16:00,
2013-01-06 15:21:00,53.3,45.2,30.14,West,269,4.0,4.0,74,0.00,,,0.18,223,WeatherTracker,2013-01-06 23:21:00,
2013-01-06 15:27:00,53.1,45.4,30.14,SSW,207,4.0,6.0,75,0.00,,,0.18,211,WeatherTracker,2013-01-06 23:27:00,
2013-01-06 15:32:00,53.0,45.3,30.14,SSW,203,3.0,6.0,75,0.00,,,0.18,186,WeatherTracker,2013-01-06 23:32:00,
2013-01-06 15:37:00,52.8,45.1,30.14,SSW,203,2.0,6.0,75,0.00,,,0.18,163,WeatherTracker,2013-01-06 23:37:00,
2013-01-06 15:42:00,52.7,45.0,30.14,SSW,211,3.0,4.0,75,0.00,,,0.18,132,WeatherTracker,2013-01-06 23:42:00,
2013-01-06 15:47:00,52.4,44.4,30.14,SSW,211,0.0,5.0,74,0.00,,,0.18,121,WeatherTracker,2013-01-06 23:47:00,
2013-01-06 15:52:00,52.2,44.5,30.14,SSW,211,0.0,5.0,75,0.00,,,0.18,63,WeatherTracker,2013-01-06 23:52:00,
2013-01-06 15:57:00,52.0,44.3,30.14,SSW,213,0.0,4.0,75,0.00,,,0.18,49,WeatherTracker,2013-01-06 23:57:00,
2013-01-06 16:02:00,51.9,44.6,30.14,SSW,213,0.0,4.0,76,0.00,,,0.18,46,WeatherTracker,2013-01-07 00:02:00,
2013-01-06 16:07:00,51.7,44.7,30.14,SW,214,0.0,3.0,77,0.00,,,0.18,44,WeatherTracker,2013-01-07 00:07:00,
2013-01-06 16:12:00,51.5,44.9,30.14,SW,214,0.0,3.0,78,0.00,,,0.18,42,WeatherTracker,2013-01-07 00:12:00,
2013-01-06 16:17:00,51.3,44.7,30.14,SW,214,0.0,3.0,78,0.00,,,0.18,42,WeatherTracker,2013-01-07 00:17:00,
2013-01-06 16:22:00,51.2,44.6,30.14,SW,215,4.0,4.0,78,0.00,,,0.18,40,WeatherTracker,2013-01-07 00:22:00,
2013-01-06 16:27:00,51.1,45.1,30.15,SW,215,2.0,4.0,80,0.00,,,0.18,37,WeatherTracker,2013-01-07 00:27:00,
2013-01-06 16:32:00,51.0,45.4,30.15,SW,215,0.0,4.0,81,0.00,,,0.18,33,WeatherTracker,2013-01-07 00:32:00,
2013-01-06 16:37:00,50.8,45.2,30.14,SW,215,0.0,4.0,81,0.00,,,0.18,30,WeatherTracker,2013-01-07 00:37:00,
2013-01-06 16:42:00,50.5,44.9,30.14,SW,215,0.0,3.0,81,0.00,,,0.18,26,WeatherTracker,2013-01-07 00:42:00,
2013-01-06 16:48:00,50.4,45.1,30.14,SW,215,0.0,3.0,82,0.00,,,0.18,19,WeatherTracker,2013-01-07 00:48:00,
2013-01-06 16:53:00,50.2,45.2,30.14,SW,215,0.0,0.0,83,0.00,,,0.18,14,WeatherTracker,2013-01-07 00:53:00,
2013-01-06 16:58:00,50.0,45.4,30.14,SW,215,0.0,0.0,84,0.00,,,0.18,9,WeatherTracker,2013-01-07 00:58:00,
2013-01-06 17:03:00,49.7,45.4,30.14,SW,215,0.0,0.0,85,0.00,,,0.18,7,WeatherTracker,2013-01-07 01:03:00,
2013-01-06 17:08:00,49.3,45.0,30.14,SW,215,0.0,0.0,85,0.00,,,0.18,5,WeatherTracker,2013-01-07 01:08:00,
2013-01-06 17:18:00,48.5,44.5,30.14,SW,215,0.0,0.0,86,0.00,,,0.18,0,WeatherTracker,2013-01-07 01:18:00,
2013-01-06 17:23:00,48.5,44.5,30.14,SW,215,0.0,0.0,86,0.00,,,0.18,0,WeatherTracker,2013-01-07 01:23:00,
2013-01-06 17:28:00,47.6,43.9,30.14,SW,215,0.0,0.0,87,0.00,,,0.18,0,WeatherTracker,2013-01-07 01:28:00,
2013-01-06 17:33:00,47.2,43.5,30.14,SW,215,0.0,0.0,87,0.00,,,0.18,0,WeatherTracker,2013-01-07 01:33:00,
2013-01-06 17:38:00,46.8,43.1,30.14,SW,215,0.0,0.0,87,0.00,,,0.18,0,WeatherTracker,2013-01-07 01:38:00,
2013-01-06 17:43:00,46.4,42.7,30.14,SW,215,0.0,0.0,87,0.00,,,0.18,0,WeatherTracker,2013-01-07 01:43:00,
2013-01-06 17:48:00,46.0,42.6,30.14,SW,215,0.0,0.0,88,0.00,,,0.18,0,WeatherTracker,2013-01-07 01:48:00,
2013-01-06 17:53:00,45.7,42.4,30.14,SW,215,0.0,0.0,88,0.00,,,0.18,0,WeatherTracker,2013-01-07 01:53:00,
2013-01-06 17:58:00,45.4,42.1,30.14,SW,215,0.0,0.0,88,0.00,,,0.18,0,WeatherTracker,2013-01-07 01:58:00,
2013-01-06 18:03:00,45.2,42.2,30.14,SW,215,0.0,0.0,89,0.00,,,0.18,0,WeatherTracker,2013-01-07 02:03:00,
2013-01-06 18:09:00,45.1,42.1,30.14,SW,215,0.0,0.0,89,0.00,,,0.18,0,WeatherTracker,2013-01-07 02:09:00,
2013-01-06 18:14:00,44.9,41.9,30.14,SW,215,0.0,0.0,89,0.00,,,0.18,0,WeatherTracker,2013-01-07 02:14:00,
2013-01-06 18:19:00,44.7,41.7,30.15,SW,215,0.0,0.0,89,0.00,,,0.18,0,WeatherTracker,2013-01-07 02:19:00,
2013-01-06 18:24:00,44.4,41.4,30.15,SW,215,0.0,0.0,89,0.00,,,0.18,0,WeatherTracker,2013-01-07 02:24:00,
2013-01-06 18:29:00,44.2,41.2,30.15,SW,215,0.0,0.0,89,0.00,,,0.18,0,WeatherTracker,2013-01-07 02:29:00,
2013-01-06 18:34:00,44.0,41.0,30.15,SW,215,0.0,0.0,89,0.00,,,0.18,0,WeatherTracker,2013-01-07 02:34:00,
2013-01-06 18:39:00,43.7,40.7,30.15,SW,215,0.0,0.0,89,0.00,,,0.18,0,WeatherTracker,2013-01-07 02:39:00,
2013-01-06 18:44:00,43.5,40.5,30.15,SW,215,0.0,0.0,89,0.00,,,0.18,0,WeatherTracker,2013-01-07 02:44:00,
2013-01-06 18:49:00,43.4,40.4,30.15,SW,215,0.0,0.0,89,0.00,,,0.18,0,WeatherTracker,2013-01-07 02:49:00,
2013-01-06 18:54:00,43.3,40.3,30.15,SW,215,0.0,0.0,89,0.00,,,0.18,0,WeatherTracker,2013-01-07 02:54:00,
2013-01-06 18:59:00,43.1,40.1,30.15,SW,215,0.0,0.0,89,0.00,,,0.18,0,WeatherTracker,2013-01-07 02:59:00,
2013-01-06 19:04:00,46.6,43.2,30.15,SW,215,0.0,0.0,88,0.00,,,0.18,0,WeatherTracker,2013-01-07 03:04:00,
2013-01-06 19:09:00,52.9,49.4,30.15,SW,215,0.0,0.0,88,0.00,,,0.18,0,WeatherTracker,2013-01-07 03:09:00,
2013-01-06 19:14:00,57.0,53.2,30.15,SW,215,0.0,0.0,87,0.00,,,0.18,0,WeatherTracker,2013-01-07 03:14:00,
2013-01-06 19:19:00,60.2,55.7,30.15,SW,215,0.0,0.0,85,0.00,,,0.18,0,WeatherTracker,2013-01-07 03:19:00,
2013-01-06 19:24:00,63.7,54.1,30.15,SW,215,0.0,0.0,71,0.00,,,0.18,0,WeatherTracker,2013-01-07 03:24:00,
2013-01-06 19:29:00,66.6,48.9,30.15,SW,215,0.0,0.0,53,0.00,,,0.18,0,WeatherTracker,2013-01-07 03:29:00,
2013-01-06 19:34:00,64.5,46.0,30.16,SW,215,0.0,0.0,51,0.01,,,0.19,0,WeatherTracker,2013-01-07 03:34:00,
2013-01-06 19:39:00,59.5,43.8,30.16,SW,215,0.0,0.0,56,0.01,,,0.19,0,WeatherTracker,2013-01-07 03:39:00,
2013-01-06 19:44:00,54.9,42.5,30.16,SW,215,0.0,0.0,63,0.01,,,0.19,0,WeatherTracker,2013-01-07 03:44:00,
2013-01-06 19:49:00,50.9,41.5,30.16,SW,215,0.0,0.0,70,0.01,,,0.19,0,WeatherTracker,2013-01-07 03:49:00,
2013-01-06 19:54:00,47.9,40.0,30.16,SW,215,0.0,0.0,74,0.01,,,0.19,0,WeatherTracker,2013-01-07 03:54:00,
2013-01-06 20:00:00,45.7,39.6,30.16,SW,215,0.0,0.0,79,0.01,,,0.19,0,WeatherTracker,2013-01-07 04:00:00,
2013-01-06 20:05:00,44.3,39.2,30.16,SW,215,0.0,0.0,82,0.01,,,0.19,0,WeatherTracker,2013-01-07 04:05:00,
2013-01-06 20:10:00,43.3,38.8,30.16,SW,215,0.0,0.0,84,0.01,,,0.19,0,WeatherTracker,2013-01-07 04:10:00,
2013-01-06 20:15:00,42.6,38.7,30.17,SW,215,0.0,0.0,86,0.01,,,0.19,0,WeatherTracker,2013-01-07 04:15:00,
2013-01-06 20:20:00,42.1,38.5,30.17,SW,215,0.0,0.0,87,0.01,,,0.19,0,WeatherTracker,2013-01-07 04:20:00,
2013-01-06 20:25:00,41.6,38.0,30.17,SW,215,0.0,0.0,87,0.01,,,0.19,0,WeatherTracker,2013-01-07 04:25:00,
2013-01-06 20:30:00,41.2,37.9,30.18,SW,215,0.0,0.0,88,0.01,,,0.19,0,WeatherTracker,2013-01-07 04:30:00,
2013-01-06 20:35:00,41.0,37.7,30.18,SW,215,0.0,0.0,88,0.00,,,0.19,0,WeatherTracker,2013-01-07 04:35:00,
2013-01-06 20:40:00,40.8,37.5,30.18,SW,215,0.0,0.0,88,0.00,,,0.19,0,WeatherTracker,2013-01-07 04:40:00,
2013-01-06 20:45:00,40.6,37.6,30.18,SW,215,0.0,0.0,89,0.00,,,0.19,0,WeatherTracker,2013-01-07 04:45:00,
2013-01-06 20:50:00,40.4,37.4,30.18,SW,215,0.0,0.0,89,0.00,,,0.19,0,WeatherTracker,2013-01-07 04:50:00,
2013-01-06 20:55:00,40.2,37.2,30.18,SW,215,0.0,0.0,89,0.00,,,0.19,0,WeatherTracker,2013-01-07 04:55:00,
2013-01-06 21:00:00,40.2,37.2,30.18,SW,215,0.0,0.0,89,0.00,,,0.19,0,WeatherTracker,2013-01-07 05:00:00,
2013-01-06 21:01:00,40.1,37.1,30.18,SW,215,0.0,0.0,89,0.00,,,0.19,0,WeatherTracker,2013-01-07 05:01:00,
2013-01-06 21:06:00,40.1,37.1,30.18,SW,215,0.0,0.0,89,0.00,,,0.19,0,WeatherTracker,2013-01-07 05:06:00,
2013-01-06 21:11:00,39.9,36.9,30.17,SW,215,0.0,0.0,89,0.00,,,0.19,0,WeatherTracker,2013-01-07 05:11:00,
2013-01-06 21:16:00,39.8,36.8,30.17,SW,215,0.0,0.0,89,0.00,,,0.19,0,WeatherTracker,2013-01-07 05:16:00,
2013-01-06 21:21:00,39.7,36.7,30.17,SW,215,0.0,0.0,89,0.00,,,0.19,0,WeatherTracker,2013-01-07 05:21:00,
2013-01-06 21:26:00,39.5,36.5,30.16,SW,215,0.0,0.0,89,0.00,,,0.19,0,WeatherTracker,2013-01-07 05:26:00,
2013-01-06 21:31:00,39.3,36.3,30.16,SW,215,0.0,0.0,89,0.00,,,0.19,0,WeatherTracker,2013-01-07 05:31:00,
2013-01-06 21:36:00,39.3,36.3,30.16,SW,215,0.0,0.0,89,0.00,,,0.19,0,WeatherTracker,2013-01-07 05:36:00,
2013-01-06 21:41:00,39.2,36.2,30.16,SW,215,0.0,0.0,89,0.00,,,0.19,0,WeatherTracker,2013-01-07 05:41:00,
2013-01-06 21:46:00,39.1,36.1,30.16,SW,215,0.0,0.0,89,0.00,,,0.19,0,WeatherTracker,2013-01-07 05:46:00,
2013-01-06 21:51:00,39.0,36.0,30.16,SW,215,0.0,0.0,89,0.00,,,0.19,0,WeatherTracker,2013-01-07 05:51:00,
2013-01-06 21:56:00,39.0,36.0,30.16,SW,215,0.0,0.0,89,0.00,,,0.19,0,WeatherTracker,2013-01-07 05:56:00,
2013-01-06 22:01:00,39.0,36.0,30.16,SW,215,0.0,0.0,89,0.00,,,0.19,0,WeatherTracker,2013-01-07 06:01:00,
2013-01-06 22:06:00,38.9,35.9,30.16,SW,215,0.0,0.0,89,0.00,,,0.19,0,WeatherTracker,2013-01-07 06:06:00,
2013-01-06 22:11:00,38.9,35.9,30.16,SW,215,0.0,0.0,89,0.00,,,0.19,0,WeatherTracker,2013-01-07 06:11:00,
2013-01-06 22:16:00,38.9,35.9,30.16,SW,215,0.0,0.0,89,0.00,,,0.19,0,WeatherTracker,2013-01-07 06:16:00,
2013-01-06 22:21:00,38.8,35.8,30.16,SW,215,0.0,0.0,89,0.00,,,0.19,0,WeatherTracker,2013-01-07 06:21:00,
2013-01-06 22:26:00,38.9,35.9,30.17,SW,215,1.0,0.0,89,0.00,,,0.19,0,WeatherTracker,2013-01-07 06:26:00,
2013-01-06 22:31:00,38.8,35.8,30.17,SW,215,1.0,3.0,89,0.00,,,0.19,0,WeatherTracker,2013-01-07 06:31:00,
2013-01-06 22:36:00,38.7,35.7,30.17,SW,215,0.0,3.0,89,0.00,,,0.19,0,WeatherTracker,2013-01-07 06:36:00,
2013-01-06 22:41:00,38.6,35.6,30.17,SW,215,0.0,2.0,89,0.00,,,0.19,0,WeatherTracker,2013-01-07 06:41:00,
2013-01-06 22:46:00,38.5,35.5,30.17,SW,215,0.0,0.0,89,0.00,,,0.19,0,WeatherTracker,2013-01-07 06:46:00,
2013-01-06 22:51:00,38.4,35.4,30.17,SW,215,0.0,0.0,89,0.00,,,0.19,0,WeatherTracker,2013-01-07 06:51:00,
2013-01-06 22:56:00,38.3,35.3,30.17,SW,215,0.0,0.0,89,0.00,,,0.19,0,WeatherTracker,2013-01-07 06:56:00,
2013-01-06 23:01:00,38.3,35.3,30.17,SW,215,0.0,0.0,89,0.00,,,0.19,0,WeatherTracker,2013-01-07 07:01:00,
2013-01-06 23:06:00,38.2,35.2,30.17,SW,215,0.0,0.0,89,0.00,,,0.19,0,WeatherTracker,2013-01-07 07:06:00,
2013-01-06 23:11:00,38.1,35.2,30.18,SW,215,0.0,0.0,89,0.00,,,0.19,0,WeatherTracker,2013-01-07 07:11:00,
2013-01-06 23:16:00,38.0,35.1,30.17,SW,215,0.0,0.0,89,0.00,,,0.19,0,WeatherTracker,2013-01-07 07:16:00,
2013-01-06 23:21:00,38.0,35.1,30.17,SW,215,0.0,2.0,89,0.00,,,0.19,0,WeatherTracker,2013-01-07 07:21:00,
2013-01-06 23:26:00,38.1,35.2,30.17,SW,215,0.0,2.0,89,0.00,,,0.19,0,WeatherTracker,2013-01-07 07:26:00,
2013-01-06 23:32:00,38.3,35.3,30.17,SW,215,0.0,0.0,89,0.00,,,0.19,0,WeatherTracker,2013-01-07 07:32:00,
2013-01-06 23:37:00,38.3,35.3,30.17,SW,215,0.0,0.0,89,0.00,,,0.19,0,WeatherTracker,2013-01-07 07:37:00,
2013-01-06 23:42:00,38.3,35.3,30.17,SW,215,0.0,0.0,89,0.00,,,0.19,0,WeatherTracker,2013-01-07 07:42:00,
2013-01-06 23:47:00,38.2,35.2,30.17,SW,215,0.0,0.0,89,0.00,,,0.19,0,WeatherTracker,2013-01-07 07:47:00,
2013-01-06 23:52:00,38.1,35.2,30.16,SW,215,0.0,0.0,89,0.00,,,0.19,0,WeatherTracker,2013-01-07 07:52:00,
2013-01-06 23:57:00,38.1,35.2,30.16,SW,215,0.0,0.0,89,0.00,,,0.19,0,WeatherTracker,2013-01-07 07:57:00,